Weather History for Idabel, OK

Change the Weather History Date:

Wednesday, December 19, 2012

  Actual Average (KDEQ) Record (KDEQ)
Temperature  
Mean Temperature 58 °F 42 °F  
Max Temperature 73 °F 54 °F 77 °F (1980)
Min Temperature 44 °F 30 °F 11 °F (1945)
Degree Days  
Heating Degree Days 6 23  
Month to date heating degree days 406  
Since 1 July heating degree days 932  
Cooling Degree Days 0 0  
Month to date cooling degree days 0  
Year to date cooling degree days 1941  
Growing Degree Days 8 (Base 50)    
Moisture  
Dew Point 51 °F    
Average Humidity 71    
Maximum Humidity 83    
Minimum Humidity 58    
Precipitation  
Precipitation 0.00 in 0.14 in 1.13 in (1998)
Month to date precipitation 2.35  
Year to date precipitation 46.98  
Snow  
Snow 0.00 in - - ()
Month to date snowfall  
Since 1 July snowfall  
Snow Depth -    
Sea Level Pressure  
Sea Level Pressure 29.71 in    
Wind  
Wind Speed 10 mph (SE)    
Max Wind Speed 21 mph    
Max Gust Speed 25 mph    
Visibility 10 miles    
Events      
T = Trace of Precipitation, MM = Missing Value Source: NWS Daily Summary

Daily Weather History Graph

Daily Weather History Graph

Search for Another Location

Airport:

Trip Planner

Search our weather history database for the weather conditions in past years. The results will help you decide how hot, cold, wet, or windy it might be!

Date:

Astronomy

Dec. 19, 2012 Rise Set
Actual Time 7:19 AM CST 5:13 PM CST
Civil Twilight 6:52 AM CST 5:41 PM CST
Nautical Twilight 6:20 AM CST 6:12 PM CST
Astronomical Twilight 5:50 AM CST 6:43 PM CST
Moon 11:47 AM CST (12/19) No Moon Set
Length of Visible Light 10h 49m
Length of Day
9h 53m
Waxing Crescent, 45% of the Moon is Illuminated
Dec 19
Waxing Crescent
Dec 19
First Quarter
Dec 28
Full
Jan 4
Last Quarter
Jan 11
New

Hourly Weather History & Observations

Time (CST) Temp. Windchill Dew Point Humidity Pressure Visibility Wind Dir Wind Speed Gust Speed Precip Events Conditions
12:15 AM 48.2 °F - 33.8 °F 58% 29.82 in 10.0 mi East 8.1 mph - N/A   Clear
12:35 AM 48.2 °F - 33.8 °F 58% 29.80 in 10.0 mi East 8.1 mph - N/A   Clear
12:55 AM 48.2 °F - 33.8 °F 58% 29.80 in 10.0 mi East 9.2 mph - N/A   Clear
1:15 AM 46.4 °F 42.4 °F 33.8 °F 62% 29.79 in 10.0 mi East 8.1 mph - N/A   Clear
1:35 AM 46.4 °F 43.5 °F 33.8 °F 62% 29.81 in 10.0 mi ENE 5.8 mph - N/A   Clear
1:55 AM 46.4 °F 43.5 °F 33.8 °F 62% 29.81 in 10.0 mi ENE 5.8 mph - N/A   Clear
2:15 AM 44.6 °F 41.4 °F 33.8 °F 66% 29.82 in 10.0 mi ENE 5.8 mph - N/A   Clear
2:35 AM 44.6 °F 39.7 °F 35.6 °F 71% 29.81 in 10.0 mi East 9.2 mph - N/A   Clear
2:55 AM 44.6 °F 41.4 °F 35.6 °F 71% 29.82 in 10.0 mi East 5.8 mph - N/A   Clear
3:15 AM 44.6 °F 40.2 °F 35.6 °F 71% 29.81 in 10.0 mi East 8.1 mph - N/A   Clear
3:35 AM 44.6 °F 40.7 °F 35.6 °F 71% 29.81 in 10.0 mi East 6.9 mph - N/A   Clear
3:55 AM 44.6 °F 39.2 °F 37.4 °F 76% 29.80 in 10.0 mi East 10.4 mph - N/A   Clear
4:15 AM 44.6 °F 39.7 °F 37.4 °F 76% 29.80 in 10.0 mi East 9.2 mph - N/A   Clear
4:35 AM 46.4 °F 41.9 °F 37.4 °F 71% 29.80 in 10.0 mi East 9.2 mph - N/A   Mostly Cloudy
4:55 AM 46.4 °F 41.9 °F 39.2 °F 76% 29.79 in 10.0 mi East 9.2 mph - N/A   Overcast
5:15 AM 48.2 °F - 41.0 °F 76% 29.79 in 10.0 mi East 9.2 mph - N/A   Overcast
5:35 AM 48.2 °F - 41.0 °F 76% 29.80 in 10.0 mi East 9.2 mph - N/A   Overcast
5:55 AM 50.0 °F - 42.8 °F 76% 29.80 in 10.0 mi East 5.8 mph - N/A   Overcast
6:15 AM 50.0 °F - 42.8 °F 76% 29.79 in 10.0 mi ESE 9.2 mph - N/A   Overcast
6:35 AM 51.8 °F - 44.6 °F 76% 29.79 in 10.0 mi East 10.4 mph - N/A   Overcast
6:55 AM 53.6 °F - 46.4 °F 77% 29.79 in 10.0 mi ENE 4.6 mph - N/A   Overcast
7:15 AM 53.6 °F - 46.4 °F 77% 29.79 in 10.0 mi ENE 6.9 mph - N/A   Overcast
7:35 AM 53.6 °F - 46.4 °F 77% 29.81 in 10.0 mi ENE 3.5 mph - N/A   Overcast
7:55 AM 51.8 °F - 46.4 °F 82% 29.80 in 10.0 mi East 8.1 mph - N/A   Overcast
8:15 AM 53.6 °F - 46.4 °F 77% 29.80 in 10.0 mi East 10.4 mph - N/A   Overcast
8:35 AM 53.6 °F - 46.4 °F 77% 29.80 in 10.0 mi East 9.2 mph - N/A   Overcast
8:55 AM 53.6 °F - 48.2 °F 82% 29.79 in 10.0 mi East 10.4 mph - N/A   Overcast
9:15 AM 55.4 °F - 50.0 °F 82% 29.79 in 10.0 mi East 8.1 mph - N/A   Overcast
9:35 AM 59.0 °F - 51.8 °F 77% 29.79 in 10.0 mi ESE 9.2 mph - N/A   Overcast
9:55 AM 59.0 °F - 53.6 °F 82% 29.80 in 10.0 mi ESE 6.9 mph - N/A   Overcast
10:15 AM 60.8 °F - 53.6 °F 77% 29.80 in 10.0 mi ESE 5.8 mph - N/A   Overcast
10:35 AM 60.8 °F - 53.6 °F 77% 29.79 in 10.0 mi East 3.5 mph - N/A   Overcast
10:55 AM 62.6 °F - 55.4 °F 77% 29.78 in 10.0 mi SE 4.6 mph - N/A   Overcast
11:15 AM 64.4 °F - 59.0 °F 83% 29.76 in 10.0 mi SE 11.5 mph - N/A   Mostly Cloudy
11:35 AM 68.0 °F - 59.0 °F 73% 29.75 in 10.0 mi SSE 9.2 mph - N/A   Scattered Clouds
11:55 AM 68.0 °F - 59.0 °F 73% 29.73 in 10.0 mi South 15.0 mph 25.3 mph N/A   Mostly Cloudy
12:15 PM 69.8 °F - 59.0 °F 68% 29.72 in 10.0 mi South 15.0 mph 19.6 mph N/A   Mostly Cloudy
12:35 PM 69.8 °F - 59.0 °F 68% 29.71 in 10.0 mi South 15.0 mph 19.6 mph N/A   Overcast
12:55 PM 71.6 °F - 59.0 °F 64% 29.69 in 10.0 mi South 17.3 mph - N/A   Mostly Cloudy
1:15 PM 71.6 °F - 59.0 °F 64% 29.68 in 10.0 mi South 15.0 mph 25.3 mph N/A   Scattered Clouds
1:55 PM 71.6 °F - 59.0 °F 64% 29.67 in 10.0 mi South 16.1 mph 24.2 mph N/A   Scattered Clouds
2:15 PM 71.6 °F - 59.0 °F 64% 29.66 in 10.0 mi South 15.0 mph 21.9 mph N/A   Scattered Clouds
2:35 PM 73.4 °F - 59.0 °F 61% 29.65 in 10.0 mi SSE 15.0 mph 23.0 mph N/A   Scattered Clouds
2:55 PM 73.4 °F - 59.0 °F 61% 29.64 in 10.0 mi South 16.1 mph - N/A   Scattered Clouds
3:15 PM 73.4 °F - 59.0 °F 61% 29.64 in 10.0 mi SSE 15.0 mph 19.6 mph N/A   Clear
3:35 PM 73.4 °F - 59.0 °F 61% 29.62 in 10.0 mi SSE 16.1 mph - N/A   Scattered Clouds
3:55 PM 71.6 °F - 59.0 °F 64% 29.61 in 10.0 mi SSE 15.0 mph 23.0 mph N/A   Scattered Clouds
4:15 PM 71.6 °F - 59.0 °F 64% 29.61 in 10.0 mi SSE 13.8 mph 18.4 mph N/A   Scattered Clouds
4:35 PM 71.6 °F - 59.0 °F 64% 29.62 in 10.0 mi South 16.1 mph - N/A   Scattered Clouds
4:55 PM 71.6 °F - 59.0 °F 64% 29.62 in 10.0 mi South 10.4 mph - N/A   Mostly Cloudy
5:15 PM 71.6 °F - 59.0 °F 64% 29.62 in 10.0 mi South 11.5 mph - N/A   Mostly Cloudy
5:35 PM 71.6 °F - 59.0 °F 64% 29.61 in 10.0 mi South 12.7 mph - N/A   Mostly Cloudy
5:55 PM 71.6 °F - 60.8 °F 69% 29.61 in 10.0 mi South 12.7 mph 17.3 mph N/A   Scattered Clouds
6:15 PM 71.6 °F - 60.8 °F 69% 29.61 in 10.0 mi South 12.7 mph 19.6 mph N/A   Scattered Clouds
6:35 PM 71.6 °F - 60.8 °F 69% 29.61 in 10.0 mi South 12.7 mph - N/A   Scattered Clouds
6:55 PM 71.6 °F - 60.8 °F 69% 29.61 in 10.0 mi SSE 11.5 mph 18.4 mph N/A   Clear
7:15 PM 71.6 °F - 60.8 °F 69% 29.61 in 10.0 mi South 11.5 mph - N/A   Scattered Clouds
7:35 PM 69.8 °F - 60.8 °F 73% 29.61 in 10.0 mi South 12.7 mph - N/A   Scattered Clouds
7:55 PM 69.8 °F - 60.8 °F 73% 29.59 in 10.0 mi South 13.8 mph - N/A   Scattered Clouds
8:15 PM 69.8 °F - 60.8 °F 73% 29.58 in 10.0 mi SSE 16.1 mph 21.9 mph N/A   Clear
8:35 PM 69.8 °F - 60.8 °F 73% 29.57 in 10.0 mi SSE 12.7 mph - N/A   Clear
8:55 PM 69.8 °F - 60.8 °F 73% 29.56 in 10.0 mi South 17.3 mph 21.9 mph N/A   Clear
9:15 PM 69.8 °F - 60.8 °F 73% 29.55 in 10.0 mi South 16.1 mph 24.2 mph N/A   Clear
9:35 PM 69.8 °F - 60.8 °F 73% 29.55 in 10.0 mi South 17.3 mph 23.0 mph N/A   Clear
9:55 PM 69.8 °F - 60.8 °F 73% 29.54 in 10.0 mi South 18.4 mph 25.3 mph N/A   Scattered Clouds
10:15 PM 71.6 °F - 60.8 °F 69% 29.54 in 10.0 mi South 15.0 mph 25.3 mph N/A   Scattered Clouds
10:35 PM 71.6 °F - 60.8 °F 69% 29.54 in 10.0 mi SSW 20.7 mph 25.3 mph N/A   Mostly Cloudy
11:55 PM - - - N/A% 29.63 in - West 11.5 mph - N/A   Unknown
11:57 PM 57.2 °F - 51.8 °F 82% 29.65 in - WSW 11.5 mph - N/A   Unknown